Regional Weather Roundup
Issued by NWS Upton, NY

Current Version | Previous Version | Text Only | Print | Product List | Glossary Off
Versions: 1 2 3 4 5 6 7 8 9 10 11 12 13 14 15 16 17 18 19 20 21 22 23 24 25 26 27

000
ASUS41 KOKX 250105
RWROKX

Regional Weather Roundup
National Weather Service New York NY
900 PM EDT THU MAY 24 2018

Note: "FAIR" indicates few or no clouds below 12,000 feet with no
significant weather and/or obstructions to visibility.

NYZ071-072-176-178-NJZ106-104-250200-
New York City Metro Area

CITY           SKY/WX    TMP DP  RH WIND       PRES   REMARKS
Central Park   FAIR      74  46  36 VRB3      30.10R
Bronx Bot Gard   N/A     68  43  40 CALM      30.09R
Bronx Lehman C   N/A     75  45  33 S5          N/A
LaGuardia Arpt FAIR      75  43  31 S9        30.07R
Queens College   N/A     70  50  49 S8          N/A
Kennedy Intl   FAIR      65  51  60 S18       30.09R
Breezy Point   NOT AVBL
Brooklyn Coll    N/A     73  45  35 S10         N/A
Staten Island    N/A     73  43  33 S9          N/A
Newark/Liberty FAIR      75  44  33 S13       30.06R
Teterboro      FAIR      74  48  39 S8        30.05R
$$

NYZ177-179-078>081-250200-
Long Island New York

CITY           SKY/WX    TMP DP  RH WIND       PRES   REMARKS
Jones Beach      N/A     61 N/A N/A S10G17      N/A
Wantagh          N/A     63  54  72 SW8         N/A
Hempstead        N/A     68  45  42 S8        30.12R
Matinecock Pt    N/A     70 N/A N/A S9          N/A
Farmingdale    FAIR      64  49  57 SW9       30.10R
MacArthur/ISP  FAIR      63  51  65 SW9       30.10R
Stony Brook      N/A     66  45  45 S5          N/A
Shirley        FAIR      63  50  62 S9        30.11R
Mt Sinai Harb    N/A    N/A N/A N/A S10G16      N/A
Westhampton    FAIR      56  52  86 S5        30.13R
East Hampton   FOG       52  51  98 S5        30.12R VSB 1
Southold         N/A     55  54  94 S7          N/A
Montauk          N/A     53  53 100 VRB6      30.13S
$$

NYZ052-065-067-250200-
Hudson Valley

CITY           SKY/WX    TMP DP  RH WIND       PRES   REMARKS
White Plains   FAIR      67  43  41 S5        30.07S
Larchmont Harb   N/A     66 N/A N/A S10         N/A
Croton On Huds   N/A     73 N/A N/A SE1         N/A
Somers           N/A     68  45  42 S5          N/A
Brewster         N/A     64  48  55 SW1         N/A
Newburgh       CLEAR     70  52  52 CALM      30.07R
Montgomery     FAIR      74  46  36 W7        30.05R
Otisville        N/A     66  50  55 NW2         N/A
Warwick          N/A     64  54  68 SW1         N/A
Suffern          N/A     68  48  49 S5          N/A
Poughkeepsie   FAIR      66  53  63 CALM      30.03S
Albany         FAIR      70  42  36 W7        30.03F
$$

NJZ001-105-106-008-010-013-015-019>022-104-250200-
New Jersey

CITY           SKY/WX    TMP DP  RH WIND       PRES   REMARKS
Newark/Liberty FAIR      75  44  33 S13       30.06R
Teterboro      FAIR      74  48  39 S8        30.05R
Caldwell       FAIR      77  46  33 CALM      30.07R
Somerville     FAIR      68  55  63 CALM      30.06R
Linden         FAIR      75  41  28 SW8       30.08R
Perth Amboy      N/A     73 N/A N/A S14         N/A
Sussex         FAIR      65  54  67 W3        30.07S
Andover          N/A     65  55  70 CALM      30.09R
Trenton        FAIR      73  50  44 S12       30.09R
Millville      FAIR      64  50  60 CALM      30.13S
Atlantic City  FAIR      67  52  58 S5        30.14R
Wrightstown    FAIR      68  40  36 S12       30.08
Toms River     FAIR      66  43  43 S7        30.13R
Belmar         FAIR      69  40  34 S7        30.12R
$$

PAZ047>061-062-071-250200-
Eastern Pennsylvania

CITY           SKY/WX    TMP DP  RH WIND       PRES   REMARKS
Philadelphia   FAIR      72  48  42 S10       30.11R
Allentown      FAIR      74  49  41 SW3       30.08S
Scranton       FAIR      67  52  58 E3        30.10R
$$

CTZ002-004>006-009-010-012-RIZ004-006-007-MAZ004-011-015-250200-
Southern New England

 In CT

CITY           SKY/WX    TMP DP  RH WIND       PRES   REMARKS
Bradley Intl   FAIR      66  54  65 S12       30.06R
Hartford       FAIR      62  54  74 S10       30.07R
Danbury        FAIR      70  44  39 S7        30.08R
Wtrbury/Oxford FAIR      64  50  60 S6        30.10R
Norwalk Harbor   N/A     68 N/A N/A S8          N/A
Bridgeport     FAIR      58  53  84 E9        30.09R
Meriden        FAIR      62  52  69 VRB5      30.08R
New Haven      FAIR      59  54  83 E8        30.10R
Chester        CLOUDY    54  54 100 CALM      30.11S
Groton         CLOUDY    52  52 100 SE7       30.12R FOG
Willimantic    FAIR      58  50  75 S8        30.11R

 In RI

CITY           SKY/WX    TMP DP  RH WIND       PRES   REMARKS
Providence     FAIR      55  51  86 S8        30.12R
Block Island   LGT RAIN  51  51 100 S8        30.13S VSB 1
Westerly       FOG       52  52 100 S7        30.13S VSB 3/4

In MA

CITY           SKY/WX    TMP DP  RH WIND       PRES   REMARKS
Boston         FAIR      59  47  64 SW15      30.08R
Worcester      FAIR      60  50  69 S13       30.08R
Westfield      FAIR      64  49  57 CALM      30.05R
Provincetown   FAIR      54  45  71 S16G23    30.11S
Nantucket      FAIR      50  50 100 S10       30.13S
$$

ANZ330-335-338-340-345-350-353-355-250200-
Coastal Marine Observations


STATION/POSITION TIME  SKY/WX   TEMP    WIND        PRES    VSBY  WAVE
                                AIR SEA DIR/SP/G                  HT/PER
                 (UTC)          (F)     (DEG/KT/KT) (MB)    (MI)  (FT/S)
NY Harb Entrance 0050            62 57  200/ 16/ 17 1019.0          2/ 8
20 S Fire Island 0050            60 56  210/ 12/ 14 1019.5          2/ 8
23 SSW Montauk P 0050            53 55  180/ 14/ 16 1019.9          2/ 3
15 E Barnegat Li 0030               59                N/A           2/ 8
Hudson Canyon    0050            58 55  190/ 10/ 10 1019.8          2/ 8
Kings Point      0030            67 60  210/ 13/ 14 1019.3
Execution Rocks  NOT AVBL
Western LI Sound 0020            69     200/ 10/ 14   N/A           0
Central LI Sound 0045            57     100/ 10/ 12   N/A           2
Robbins Reef     0036            75     190/ 16/ 19 1018.6
$$


>>>>>>>>>>>>>>>>>>>>>>>>>>>> KEY <<<<<<<<<<<<<<<<<<<<<<<<<<<
>                                                          <
>     SKY/WX - Sky Condition/Present Weather               <
>     TMP    - Temperature in Fahrenheit                   <
>     DP     - Dew Point in Fahrenheit                     <
>     RH     - Relative Humidity in Percent                <
>     WIND   - Direction (from) and Speed in MPH           <
>     PRES   - Mean Sea Level Pressure (inches of Hg)      <
>     WCI    - Wind Chill Index                            <
>     VSB    - Visibility in Miles                         <
>     HX     - Heat Index                                  <
>     TC     - Temperature in Celsius                      <
>     VRB    - Varibale Wind Direction                     <
>                                                          <
>>>>>>>>>>>>>>>>>>>>>>>>>>>> KEY <<<<<<<<<<<<<<<<<<<<<<<<<<<




USA.gov is the U.S. government's official web portal to all federal, state and local government web resources and services.